Las Vegas, NM

4:21 PM MDT on March 29, 2017 (GMT -0600)
Las Vegas Municipal

Weather History for KLVS - November, 2012

Change the Weather History Date:

Tuesday, November 27, 2012

  Actual Average Record
Temperature  
Mean Temperature 40 °F -  
Max Temperature 63 °F 44 °F 73 °F (1949)
Min Temperature 17 °F 19 °F -4 °F (1959)
Degree Days  
Heating Degree Days 25    
Moisture  
Dew Point 2 °F    
Average Humidity 36    
Maximum Humidity 96    
Minimum Humidity 4    
Precipitation  
Precipitation 0.00 in - - ()
Sea Level Pressure  
Sea Level Pressure 30.23 in    
Wind  
Wind Speed 7 mph (North)    
Max Wind Speed 14 mph    
Max Gust Speed -    
Visibility 10 miles    
Events      
Averages and records for this station are not official NWS values.
T = Trace of Precipitation, MM = Missing Value Source: NWS Daily Summary

Daily Weather History Graph

Daily Weather History Graph

Search for Another Location

Airport or City:

Trip Planner

Search our weather history database for the weather conditions in past years. The results will help you decide how hot, cold, wet, or windy it might be!

Date:

Astronomy

Nov. 27, 2012 Rise Set
Actual Time 6:48 AM MST 4:48 PM MST
Civil Twilight 6:20 AM MST 5:15 PM MST
Nautical Twilight 5:49 AM MST 5:47 PM MST
Astronomical Twilight 5:18 AM MST 6:17 PM MST
Moon 4:20 PM MST (11/27) 5:56 AM MST (11/27)
Length of Visible Light 10h 55m
Length of Day
9h 59m
Waxing Gibbous, 99% of the Moon is Illuminated
Nov 27
Waxing Gibbous
Nov 28
Full
Dec 6
Last Quarter
Dec 13
New
Dec 19
First Quarter

Hourly Weather History & Observations

Time (MST) Temp. Windchill Dew Point Humidity Pressure Visibility Wind Dir Wind Speed Gust Speed Precip Events Conditions
12:53 AM 19.9 °F 6.7 °F 19.0 °F 96% 30.27 in 10.0 mi South 13.8 mph - N/A   Clear
1:53 AM 18.0 °F 6.1 °F 17.1 °F 96% 30.28 in 10.0 mi South 10.4 mph - N/A   Clear
2:53 AM 17.1 °F 7.6 °F 15.1 °F 92% 30.29 in 8.0 mi West 6.9 mph - N/A   Clear
3:53 AM 18.0 °F 11.1 °F 15.1 °F 88% 30.28 in 10.0 mi NW 4.6 mph - N/A   Clear
4:53 AM 21.0 °F 16.2 °F 18.0 °F 88% 30.30 in 10.0 mi North 3.5 mph - N/A   Clear
5:53 AM 19.0 °F 11.1 °F 15.1 °F 85% 30.35 in 10.0 mi NNE 5.8 mph - N/A   Clear
6:53 AM 32.0 °F 25.6 °F 14.0 °F 48% 30.32 in 10.0 mi NE 6.9 mph - N/A   Clear
7:53 AM 32.0 °F 28.7 °F 16.0 °F 52% 30.34 in 10.0 mi NNE 3.5 mph - N/A   Clear
8:53 AM 39.0 °F 34.8 °F 16.0 °F 39% 30.33 in 10.0 mi Variable 5.8 mph - N/A   Clear
9:53 AM 48.9 °F - 5.0 °F 17% 30.28 in 10.0 mi Calm Calm - N/A   Clear
10:53 AM 54.0 °F - 1.9 °F 12% 30.25 in 10.0 mi South 3.5 mph - N/A   Clear
11:53 AM 57.0 °F - -15.0 °F 5% 30.20 in 10.0 mi South 8.1 mph - N/A   Clear
12:53 PM 61.0 °F - -6.0 °F 7% 30.16 in 10.0 mi SW 6.9 mph - N/A   Clear
1:53 PM 62.1 °F - -17.0 °F 4% 30.15 in 10.0 mi NE 3.5 mph - N/A   Clear
2:53 PM 63.0 °F - -14.1 °F 4% 30.15 in 10.0 mi ENE 5.8 mph - N/A   Clear
3:53 PM 61.0 °F - -11.9 °F 5% 30.16 in 10.0 mi Calm Calm - N/A   Clear
4:53 PM 55.9 °F - -11.9 °F 6% 30.17 in 10.0 mi North 5.8 mph - N/A   Clear
5:53 PM 43.0 °F 37.2 °F -6.0 °F 13% 30.26 in 10.0 mi North 10.4 mph - N/A   Clear
6:53 PM 43.0 °F 38.8 °F -2.0 °F 15% 30.21 in 10.0 mi ENE 6.9 mph - N/A   Clear
7:53 PM 41.0 °F 38.0 °F -0.9 °F 17% 30.22 in 10.0 mi ENE 4.6 mph - N/A   Clear
8:53 PM 44.1 °F 40.1 °F -2.0 °F 15% 30.17 in 10.0 mi NNW 6.9 mph - N/A   Clear
9:53 PM 39.0 °F 33.4 °F -4.0 °F 16% 30.16 in 10.0 mi WNW 8.1 mph - N/A   Clear
10:53 PM 36.0 °F 31.1 °F -5.1 °F 17% 30.16 in 10.0 mi NW 5.8 mph - N/A   Clear
11:53 PM 35.1 °F 27.9 °F -6.0 °F 17% 30.16 in 10.0 mi NNW 9.2 mph - N/A   Clear